Вернуться в каталог

STARLINK-4288

АктивенСвязьVLEO
NORAD 53005·PAYLOAD·🇺🇸 United States

Запущен Jul 7, 2022 с Cape Canaveral Space Force Station

Loading…

Ближайшие Пролёты (ближайшие 24 часа)

TLE

СвежийSource: CelesTrak SupGP

Эпоха: Sep 14, 2026, 21:49 UTC

1 53005C 22076V   26257.90951389  .00002823  00000+0  83411-4 0  2578
2 53005  53.1580 310.2116 0001045  65.1003 212.5510 15.34388515    16

Отслеживайте STARLINK-4288 в реальном времени с AllMySat

Download on the App Store